Location: Newark
(12.4436°N, 0.6167°W)
Time: 04:33:06
(UTC+00:00)

deb Explorer IX - Pass Details

Date: 09 December 2019
Orbit: 548 x 1101 km, 38.8° (Epoch: 22 January)

Event Time Altitude Azimuth Distance (km) Brightness Sun altitude
Rises 00:11:07 0° 308° (NW) 3,907 - -78.9°
Reaches altitude 10° 00:13:55 10° 308° (NW) 2,938 - -78.7°
Maximum altitude 00:21:13 86° 220° (SW) 1,046 - -77.9°
Drops below altitude 10° 00:27:50 10° 132° (SE) 2,683 - -77.0°
Sets 00:30:18 0° 131° (SE) 3,552 - -76.6°
